Wind_Speed
26 32 37 35 32 32 32 22 17 21 19 27 34 42 38 39 45 43 43 43 42 36 29 28 26 27 25 22 22 24 25 28 31 30 27 25 24 22 21 19 17 16 16 17
27 35 32 30 31 36 39 38 37 36 28 26 35 48 43 41 43 46 45 44 41 34 34 31 26 26 24 23 22 23 24 25 25 25 23 23 23 22 20 17 15 15 16 18
30 25 20 28 30 31 32 33 27 29 27 32 33 53 46 42 39 39 46 43 39 34 34 31 31 26 23 21 20 21 19 20 20 21 22 23 23 20 16 14 14 15 17 18
26 31 31 30 24 25 34 30 27 28 22 15 11 14 36 29 38 40 40 44 41 36 36 33 33 30 25 19 17 19 18 18 19 19 21 20 17 15 14 13 14 14 17 18
23 20 22 34 34 24 23 22 15 19 21 25 36 19 23 21 37 41 41 38 42 41 41 37 35 31 29 24 21 19 19 20 20 19 19 18 16 14 13 12 12 14 16 19
31 32 29 29 23 30 23 18 17 15 18 15 26 22 35 33 41 34 33 31 36 40 42 41 39 35 32 27 24 20 20 21 20 19 18 16 15 13 12 11 11 14 17 20
29 33 37 34 29 27 29 23 4 7 8 8 1 20 46 15 23 34 26 23 31 37 41 45 43 40 36 31 25 22 22 22 21 20 18 17 15 14 11 11 13 16 19 23
15 13 33 34 37 33 34 35 8 6 5 4 21 18 46 45 45 43 26 23 28 38 42 45 43 36 33 31 27 24 22 24 24 21 20 17 16 14 13 13 16 18 22 25
10 16 21 21 28 36 20 33 40 11 12 4 10 28 34 37 44 37 32 27 24 35 36 40 38 33 33 30 27 24 23 26 25 22 20 19 17 16 15 17 19 22 25 28
14 17 21 16 17 31 29 18 10 18 5 6 13 21 24 19 18 32 35 29 28 29 31 34 37 35 34 32 29 25 26 27 25 23 22 21 19 18 18 19 22 25 28 32
21 17 9 15 28 33 34 33 18 15 18 4 5 13 34 37 39 32 20 31 29 31 30 33 35 36 34 34 29 26 29 29 27 24 23 22 21 20 21 23 25 28 31 34
21 15 24 36 29 27 35 38 39 19 13 23 25 34 25 28 25 29 28 26 25 26 19 20 28 32 34 32 28 28 30 29 27 26 24 23 22 22 24 26 28 31 34 36
15 13 10 10 19 33 37 40 40 44 22 23 10 30 41 14 16 23 26 18 22 24 21 20 28 32 31 29 27 29 31 30 28 26 25 24 23 25 26 28 31 33 36 38
26 25 23 14 16 7 22 32 36 41 34 32 40 50 43 24 15 19 24 22 21 20 20 21 26 28 27 26 26 29 30 29 28 27 26 26 27 27 28 30 33 36 38 39
28 29 30 35 38 33 33 22 27 42 37 32 33 32 38 27 25 17 23 19 19 20 20 21 24 24 23 24 26 28 29 28 27 27 28 28 28 29 30 32 35 37 38 40
26 33 32 40 42 46 38 28 27 34 36 44 37 34 27 3 15 17 14 19 20 21 22 22 21 20 20 22 24 25 26 27 28 29 29 28 29 30 31 34 36 37 38 40
24 28 15 19 11 1 9 26 33 37 37 39 33 21 5 6 14 15 19 18 16 16 16 16 15 17 19 20 21 22 24 26 27 27 28 28 28 30 32 34 35 37 38 40
25 18 12 13 6 2 11 8 22 36 42 40 30 14 10 16 15 20 20 17 16 15 14 13 13 16 19 20 21 22 23 24 24 25 26 26 29 30 33 33 35 37 38 38
16 16 9 8 9 3 7 9 1 11 7 14 16 15 8 13 16 21 20 17 16 15 14 12 12 13 15 17 18 18 19 20 21 22 24 26 28 30 31 33 35 36 36 37
12 20 11 11 5 3 9 10 4 5 3 6 7 8 14 14 18 19 12 12 15 17 15 13 13 14 14 14 15 16 17 18 20 22 23 26 28 29 31 33 35 35 35 37
10 7 13 10 5 5 8 7 6 4 4 7 17 21 18 14 14 13 13 11 11 13 13 12 12 11 11 12 13 14 15 17 19 22 24 25 27 29 31 33 33 33 35 38
8 5 5 6 4 3 4 2 5 8 7 4 8 16 20 14 10 13 12 11 12 12 11 11 11 12 12 12 12 13 15 18 19 21 23 25 27 29 30 30 32 35 37 40
8 10 3 6 2 3 3 4 5 2 4 5 6 10 13 12 12 9 9 10 12 12 11 12 12 12 11 12 13 14 16 17 19 21 24 26 28 28 28 30 32 35 39 42
8 11 10 7 6 6 3 5 5 5 6 7 7 8 11 12 12 10 10 10 12 11 11 10 10 10 11 11 13 14 15 17 20 23 24 25 25 26 28 31 35 38 40 42
12 6 5 9 7 7 7 4 3 3 3 3 3 6 7 8 9 8 8 8 9 9 9 9 9 9 10 11 12 14 16 19 21 22 22 23 24 26 30 33 36 39 41 44
12 12 9 7 5 11 4 8 4 2 2 2 4 4 8 10 7 9 10 10 9 8 8 8 9 9 9 10 13 15 17 18 19 19 20 22 25 29 32 34 36 39 41 42
Wind_Direction
227 229 230 235 241 244 245 254 267 264 259 262 258 257 257 257 252 247 238 239 242 243 242 247 244 233 237 250 262 266 258 253 251 250 256 257 260 267 270 269 269 275 280 288
236 242 243 248 250 251 252 257 258 263 265 267 270 267 257 254 248 248 241 235 235 239 236 236 230 236 245 251 256 264 262 256 251 248 243 245 253 256 258 261 263 273 283 289
247 250 257 250 252 253 253 252 252 260 270 264 279 275 264 254 249 244 241 239 232 227 224 227 231 238 244 250 254 263 257 246 239 235 236 240 244 247 249 254 265 275 282 287
258 251 248 248 255 259 256 257 259 262 262 265 259 285 273 261 246 239 237 237 226 218 220 224 227 235 240 247 256 258 246 232 231 233 234 234 234 232 244 258 268 276 282 286
246 258 251 246 247 253 251 261 263 247 256 268 261 267 280 285 251 240 238 239 231 226 221 223 226 229 238 244 253 254 242 232 229 230 230 226 229 236 244 253 269 278 284 292
256 261 255 256 250 245 242 252 243 241 252 252 251 235 275 262 262 255 250 243 236 226 225 224 223 227 236 243 245 252 239 233 229 225 222 225 228 231 239 258 274 284 291 295
251 251 254 254 249 238 240 233 213 221 210 244 237 229 254 247 255 257 253 239 240 230 227 223 227 229 232 239 242 248 238 233 228 223 220 221 222 226 242 264 281 292 296 299
241 245 243 236 238 234 227 216 206 202 220 242 237 234 245 257 255 263 267 232 231 224 226 223 229 231 235 233 240 242 237 231 226 220 220 221 223 235 251 271 286 294 299 304
238 247 255 247 244 225 216 216 226 252 272 299 234 254 267 260 258 250 243 247 242 223 223 224 227 227 227 233 236 237 236 227 223 220 220 223 230 243 260 276 289 297 302 305
248 260 263 259 223 230 229 229 200 212 208 238 256 269 257 262 276 255 245 233 235 246 241 224 225 224 230 234 231 233 228 222 222 219 221 227 238 252 268 281 291 298 301 305
224 236 252 224 218 220 212 221 218 236 229 201 273 258 265 273 265 255 251 237 242 247 234 229 223 224 227 228 224 228 222 218 219 221 226 235 247 261 274 282 289 296 301 303
236 243 248 245 252 244 236 230 217 211 207 228 247 269 265 271 263 258 249 249 243 213 210 206 204 212 221 222 223 223 218 218 220 224 232 243 254 266 273 281 289 296 301 304
245 241 268 282 253 233 227 231 226 227 231 226 218 258 259 303 251 247 243 220 207 193 191 199 208 216 221 222 223 217 215 218 223 230 238 247 258 265 274 283 291 297 300 301
254 256 240 239 254 264 228 235 233 230 226 228 238 255 256 275 300 249 230 207 193 193 195 206 213 216 219 222 217 212 215 220 226 234 242 251 259 268 277 285 292 296 298 301
248 256 261 262 273 270 265 263 237 218 217 213 242 251 249 259 281 235 220 203 204 193 194 203 213 215 215 209 206 210 217 225 233 239 246 254 263 271 280 288 292 295 299 303
268 263 273 277 286 282 264 261 224 226 228 228 251 260 268 183 170 199 202 180 182 189 196 204 209 209 208 206 209 215 223 231 237 242 249 258 266 275 283 288 292 296 301 307
270 259 276 291 327 202 237 231 224 225 224 223 233 259 281 208 194 203 183 165 166 172 183 194 201 204 204 209 215 223 230 236 241 247 254 261 271 279 286 289 293 300 306 307
272 288 272 274 328 332 339 48 223 230 225 234 244 228 185 176 185 143 131 130 135 146 155 164 179 192 196 203 212 221 229 236 243 249 258 267 275 282 286 293 299 303 304 304
279 282 303 331 315 338 28 19 93 171 205 146 138 134 154 188 151 144 142 138 139 143 152 164 174 180 194 206 217 227 235 242 248 255 263 272 279 284 292 298 301 301 303 306
255 270 266 324 324 357 36 38 62 117 243 230 226 211 207 171 173 170 166 167 167 167 169 179 189 197 203 212 223 233 240 244 251 260 270 278 285 292 296 298 300 302 305 308
213 244 233 261 288 308 1 22 102 178 113 174 198 204 208 212 210 196 187 187 184 182 189 199 198 200 208 219 226 231 239 250 262 271 279 285 292 295 296 298 300 304 308 310
213 215 221 213 237 309 360 46 52 94 64 67 194 197 202 193 182 188 195 197 202 204 206 209 211 214 221 224 230 240 253 264 272 280 288 292 292 294 296 298 304 308 309 312
221 215 239 219 300 264 13 88 110 79 62 73 122 166 178 184 184 184 193 202 205 206 211 214 214 214 216 227 243 256 267 276 283 287 288 290 292 293 299 304 306 309 313 317
252 232 226 241 263 250 221 117 89 97 93 77 97 133 160 168 176 192 202 199 204 214 206 201 205 215 231 246 260 271 278 284 285 285 287 290 294 300 303 307 311 315 318 319
245 245 279 275 241 203 209 175 100 88 63 64 100 135 141 157 181 192 203 201 190 188 194 200 216 235 252 263 270 275 278 280 282 285 290 295 299 304 308 311 315 318 320 321
245 250 276 304 298 215 228 208 183 187 172 187 131 153 156 149 167 173 175 178 182 193 211 231 244 253 260 265 271 276 279 282 286 291 297 302 306 308 311 316 319 320 320 320
Height
3045 3045 3040 3047 3051 3052 3054 3053 3051 3052 3055 3053 3049 3044 3045 3049 3050 3051 3054 3058 3062 3067 3072 3074 3076 3079 3081 3082 3084 3085 3086 3088 3090 3092 3094 3094 3094 3095 3096 3096 3096 3096 3095 3094
3041 3034 3040 3045 3047 3048 3049 3048 3047 3048 3051 3050 3043 3031 3035 3036 3037 3041 3044 3048 3053 3058 3063 3067 3070 3073 3075 3078 3080 3081 3081 3082 3084 3087 3089 3090 3091 3092 3092 3092 3093 3093 3092 3091
3034 3033 3037 3038 3040 3042 3042 3042 3046 3046 3047 3044 3040 3018 3022 3025 3029 3031 3033 3039 3045 3048 3054 3059 3063 3068 3070 3073 3075 3077 3077 3078 3079 3082 3084 3086 3087 3087 3089 3089 3090 3089 3089 3088
3028 3030 3031 3033 3033 3039 3036 3039 3042 3043 3046 3041 3040 3018 3009 3015 3018 3019 3023 3028 3035 3040 3046 3051 3056 3061 3066 3068 3071 3072 3073 3075 3077 3079 3080 3082 3083 3085 3085 3086 3086 3086 3086 3084
3021 3023 3025 3025 3029 3034 3033 3036 3038 3040 3039 3037 3031 3033 2999 3008 3008 3011 3016 3021 3027 3034 3039 3044 3049 3055 3060 3063 3066 3068 3070 3072 3074 3075 3077 3079 3081 3082 3083 3083 3083 3083 3082 3080
3019 3019 3020 3021 3026 3028 3031 3033 3034 3035 3035 3025 3024 3027 2991 3001 3003 3008 3014 3019 3021 3026 3032 3037 3042 3047 3053 3058 3061 3064 3066 3069 3070 3072 3074 3076 3078 3079 3080 3080 3080 3079 3078 3076
3013 3011 3012 3016 3020 3023 3025 3028 3028 3028 3025 3013 3015 3018 2993 2994 2996 3001 3008 3011 3015 3020 3022 3028 3035 3040 3047 3053 3057 3060 3062 3065 3067 3069 3071 3074 3075 3076 3077 3077 3076 3075 3073 3071
3007 3004 3003 3007 3009 3012 3013 3018 3018 3017 3014 3010 3010 2998 2978 2988 2996 2998 3001 3004 3006 3010 3013 3021 3028 3035 3041 3048 3052 3056 3058 3061 3063 3066 3068 3070 3072 3073 3073 3073 3072 3070 3068 3066
3002 2998 2999 3000 3004 3007 3007 3008 3008 3010 3009 3008 2999 2985 2980 2983 2986 2991 2993 2996 2999 3004 3007 3015 3022 3028 3036 3042 3047 3051 3054 3057 3060 3062 3064 3066 3068 3069 3070 3069 3068 3065 3062 3059
2999 2999 2996 2998 3000 3000 3001 3006 3009 3006 3006 3007 2990 2983 2976 2978 2980 2983 2986 2988 2993 2997 3003 3008 3016 3023 3030 3037 3042 3046 3049 3053 3056 3058 3061 3063 3065 3065 3065 3064 3062 3060 3057 3053
2995 2996 2993 2992 2988 2989 2995 2996 2999 3000 2999 2997 2989 2974 2972 2975 2977 2977 2979 2985 2988 2992 2998 3003 3009 3017 3026 3031 3036 3040 3044 3048 3051 3054 3057 3059 3060 3060 3060 3058 3057 3054 3051 3048
2989 2988 2983 2980 2982 2985 2985 2984 2989 2989 2986 2986 2985 2965 2969 2971 2969 2973 2974 2979 2983 2988 2993 2997 3005 3014 3021 3027 3031 3035 3039 3044 3048 3051 3053 3054 3055 3055 3054 3053 3050 3048 3045 3040
2985 2983 2980 2976 2976 2975 2973 2975 2977 2981 2982 2978 2982 2956 2962 2966 2965 2966 2971 2975 2979 2986 2991 2996 3004 3011 3018 3022 3027 3031 3036 3040 3044 3047 3049 3050 3050 3050 3048 3047 3044 3041 3037 3033
2981 2977 2974 2970 2966 2967 2966 2966 2969 2971 2972 2971 2963 2958 2961 2962 2962 2963 2969 2973 2979 2984 2990 2997 3003 3009 3014 3018 3022 3027 3032 3037 3040 3042 3044 3045 3045 3044 3043 3041 3038 3034 3030 3026
2976 2970 2967 2960 2958 2960 2958 2959 2959 2959 2964 2963 2959 2958 2955 2961 2962 2961 2966 2973 2977 2983 2989 2997 3002 3007 3010 3014 3019 3024 3029 3033 3036 3038 3039 3039 3039 3038 3037 3034 3031 3027 3023 3019
2971 2964 2961 2951 2948 2944 2949 2949 2952 2953 2957 2958 2958 2952 2953 2958 2959 2964 2970 2974 2978 2983 2990 2996 3000 3004 3008 3012 3017 3022 3026 3029 3032 3033 3034 3034 3033 3032 3030 3027 3024 3020 3016 3010
2968 2963 2960 2948 2942 2939 2945 2940 2942 2946 2952 2957 2959 2955 2959 2959 2962 2966 2972 2976 2980 2985 2990 2994 2999 3002 3006 3011 3016 3020 3023 3025 3027 3028 3029 3028 3028 3026 3024 3021 3017 3013 3008 3003
2964 2963 2961 2951 2946 2943 2940 2933 2934 2939 2946 2953 2956 2958 2963 2962 2970 2972 2975 2979 2982 2986 2990 2993 2996 3000 3004 3008 3012 3015 3018 3020 3022 3023 3023 3023 3022 3020 3017 3014 3010 3006 3001 2996
2962 2962 2961 2955 2949 2948 2946 2942 2942 2943 2948 2952 2956 2960 2962 2967 2971 2973 2977 2981 2984 2988 2991 2993 2996 2999 3003 3006 3009 3012 3014 3016 3017 3018 3018 3017 3016 3013 3010 3007 3003 2998 2993 2988
2962 2961 2964 2960 2956 2951 2951 2950 2948 2950 2953 2953 2956 2960 2967 2969 2972 2975 2978 2982 2984 2987 2989 2992 2995 2998 3001 3004 3006 3008 3010 3012 3013 3013 3013 3011 3009 3007 3004 2999 2995 2991 2986 2981
2960 2960 2961 2962 2960 2953 2952 2952 2953 2955 2960 2956 2958 2961 2964 2968 2973 2976 2978 2981 2984 2986 2989 2991 2994 2997 2999 3001 3003 3005 3007 3008 3008 3008 3007 3005 3003 3000 2996 2992 2988 2984 2980 2974
2959 2958 2958 2960 2959 2957 2954 2954 2954 2956 2955 2955 2955 2958 2962 2966 2970 2973 2977 2980 2983 2986 2988 2991 2993 2995 2997 2999 3001 3002 3003 3004 3004 3003 3001 2999 2996 2993 2990 2986 2982 2977 2971 2966
2958 2957 2956 2957 2956 2956 2956 2956 2957 2957 2957 2957 2957 2959 2962 2965 2969 2973 2976 2979 2981 2984 2986 2988 2991 2993 2995 2997 2999 3000 3000 3000 2999 2997 2995 2992 2990 2987 2984 2980 2976 2970 2964 2957
2953 2955 2955 2957 2955 2955 2957 2958 2958 2959 2959 2959 2959 2960 2962 2965 2968 2972 2975 2977 2980 2982 2985 2987 2990 2992 2994 2995 2996 2996 2996 2995 2993 2992 2990 2987 2984 2981 2977 2973 2968 2962 2955 2949
2953 2953 2953 2954 2955 2956 2957 2959 2959 2960 2960 2961 2961 2962 2963 2966 2968 2970 2973 2976 2978 2981 2984 2987 2989 2990 2991 2992 2992 2992 2992 2990 2988 2986 2984 2982 2979 2975 2971 2966 2960 2955 2949 2941
2949 2951 2953 2953 2953 2955 2956 2958 2960 2961 2962 2963 2963 2964 2965 2967 2970 2972 2974 2977 2980 2982 2984 2986 2987 2988 2989 2989 2989 2988 2987 2985 2983 2981 2979 2976 2973 2969 2964 2960 2955 2948 2941 2935